SL-14 R/B

Last updated on Tue Sep 16 2025 00:02:14 GMT+0000 (Coordinated Universal Time)

1 21423U 91042B 25258.31438222 .00000558 00000+0 67764-4 0 9996 2 21423 82.4951 24.6241 0018572 97.0489 263.2838 14.81618775827100
UTC large
Height (km)
Speed (km/s)
/
Latitude / Longitude
Inclination (degrees)
Orbital Period (minutes)
Azimuth
Elevation
Range (km)
Doppler Factor

Next 0 passes for location: London (51.5072 / 0.1276)

Sorry there are no passes over London.